Location: Chassagnes
(44.4047°N, 4.1657°E)
Time: 11:54:59
(UTC+00:00)

USA 215 - Pass Details

Date: 27 October 2020
Orbit: 1102 x 1106 km, 123.0° (Epoch: 23 November)

Event Time Altitude Azimuth Distance (km) Brightness Sun altitude
Exits shadow 17:51:36 15° 62° (ENE) 2,606 4.7 -13.5°
Maximum altitude 17:56:02 31° 9° (N) 1,822 4.3 -14.3°
Drops below altitude 10° 18:01:37 10° 311° (NW) 2,966 6.2 -15.2°
Sets 18:04:22 0° 301° (WNW) 3,925 7.1 -15.7°
